FENGYUN 1C DEB

基本信息
目录编号:
31724
目录名称:
FENGYUN 1C DEB
国际标识:
1999-025CDX
轨道中心:
EARTH
物体状态:
在轨
发射日期:
1999-05-10 UTC
轨道信息
数据来源: 国际轨道数据
星历时间: 2026-09-03T18:57:45+0800
半长轴: 7086.674km
偏心率: 0.0139949
轨道倾角: 97.856°
近地点辐角: 138.442°
升交点赤经: 240.739°
平近点角: 222.751°
近地点: 609.359km
远地点: 807.715km
周期: 98.952分钟
每日圈数: 14.55255
详细信息
发射场:
TSC
轨道高度:
LEO
数据来源:
AOE Integration Group
参考系:
TEME
时间系统:
UTC
历元类型:
SGP4
2D轨道图
3D轨道图
轨道高度分析图
轨道倾角分析图
轨道综合分析图
查看轨道综合分析图